CYGFM04 (41885 NORAD) Tracking and Keplerian Element Data

This shows tracking and keplerian element data for the satellite.

Feedback or suggestion? Click here.




ElementValue
Catalog41885
NameCYGFM04
Epoch Orbit10560
Epoch Day315.77015064
Epoch Year2018
RAAN80.9129
Inclination34.95
Eccentricity0.0014931
Argument of Perigee242.0017
Mean Anonmoly117.9184
Mean Motion15.14750417
Decay Rate4.18E-06
L11 41885U 16078B 18315.77015064 .00000418 00000-0 23671-4 0 9992
L22 41885 34.9500 80.9129 0014931 242.0017 117.9184 15.14750417105600

Live tracking and technical data element details for CYGFM04 (NORAD 41885). CYGFM04 can be tracked NOW for your location showing map with azimuth and elevation plus other details from your city location.

Track the satellite on the map from your city or location and see movement details for azimuth, elevation, latitude, longitude, range, height, and movement on the map or in text.







IsCatalogInMostPopularTable: catalog: 41885, numindb: 112
Update: records affected: 1



GetName: 41885 CYGFM04

Hit Count: updated at: Mon, 12 Nov 2018 18:25:34 GMT